Weather History for KFDY - September, 2012

Change the Weather History Date:

Thursday, September 27, 2012

  Actual Average Record
Temperature  
Mean Temperature 58 °F -  
Max Temperature 63 °F 69 °F 88 °F (1973)
Min Temperature 48 °F 48 °F 36 °F (1991)
Degree Days  
Heating Degree Days 8    
Growing Degree Days 8 (Base 50)    
Moisture  
Dew Point 53 °F    
Average Humidity 83    
Maximum Humidity 94    
Minimum Humidity 60    
Precipitation  
Precipitation 0.11 in - - ()
Sea Level Pressure  
Sea Level Pressure 30.14 in    
Wind  
Wind Speed 7 mph (ENE)    
Max Wind Speed 14 mph    
Max Gust Speed 22 mph    
Visibility 8 miles    
Events Rain    
Averages and records for this station are not official NWS values.
T = Trace of Precipitation, MM = Missing Value Source: NWS Daily Summary

Daily Weather History Graph

Daily Weather History Graph

Search for Another Location

Airport or City:

Trip Planner

Search our weather history database for the weather conditions in past years. The results will help you decide how hot, cold, wet, or windy it might be!

Date:

Astronomy

Sep. 27, 2012 Rise Set
Actual Time 7:27 AM EDT 7:22 PM EDT
Civil Twilight 7:00 AM EDT 7:49 PM EDT
Nautical Twilight 6:28 AM EDT 8:21 PM EDT
Astronomical Twilight 5:55 AM EDT 8:54 PM EDT
Moon 5:54 PM EDT (9/27) 4:54 AM EDT (9/27)
Length of Visible Light 12h 49m
Length of Day
11h 54m
Waxing Gibbous, 94% of the Moon is Illuminated
Sep 27
Waxing Gibbous
Sep 29
Full
Oct 8
Last Quarter
Oct 15
New
Oct 21
First Quarter

Hourly Weather History & Observations

Time (EDT) Temp. Dew Point Humidity Pressure Visibility Wind Dir Wind Speed Gust Speed Precip Events Conditions
12:00 AM 62.6 °F 60.8 °F 94% 30.11 in 4.0 mi Calm Calm - N/A   Overcast
12:21 AM 62.6 °F 60.8 °F 94% 30.12 in 4.0 mi Calm Calm - N/A   Overcast
12:53 AM 62.1 °F 60.1 °F 93% 30.10 in 3.0 mi NE 9.2 mph - N/A   Overcast
1:53 AM 61.0 °F 59.0 °F 93% 30.11 in 7.0 mi ENE 9.2 mph - N/A   Overcast
2:53 AM 60.1 °F 55.0 °F 83% 30.10 in 10.0 mi ENE 9.2 mph - N/A   Overcast
3:53 AM 59.0 °F 54.0 °F 83% 30.10 in 10.0 mi ENE 9.2 mph - N/A   Overcast
4:53 AM 59.0 °F 53.1 °F 81% 30.11 in 10.0 mi East 9.2 mph - N/A   Overcast
5:53 AM 59.0 °F 53.1 °F 81% 30.13 in 10.0 mi ENE 10.4 mph - N/A   Overcast
6:53 AM 59.0 °F 53.1 °F 81% 30.12 in 10.0 mi ENE 10.4 mph - N/A   Overcast
7:36 AM 59.0 °F 53.6 °F 82% 30.13 in 10.0 mi ENE 13.8 mph - N/A   Overcast
7:53 AM 59.0 °F 53.1 °F 81% 30.13 in 10.0 mi East 11.5 mph - N/A   Overcast
8:18 AM 57.2 °F 53.6 °F 88% 30.15 in 9.0 mi East 6.9 mph - 0.02 in Rain Light Rain
8:53 AM 57.9 °F 55.0 °F 90% 30.14 in 10.0 mi ENE 9.2 mph - 0.02 in   Overcast
9:53 AM 57.9 °F 54.0 °F 87% 30.15 in 9.0 mi ENE 9.2 mph - 0.00 in Rain Light Rain
10:53 AM 57.9 °F 54.0 °F 87% 30.16 in 10.0 mi ENE 8.1 mph - 0.01 in   Overcast
11:53 AM 57.9 °F 54.0 °F 87% 30.16 in 10.0 mi NE 11.5 mph - N/A   Overcast
12:28 PM 57.2 °F 53.6 °F 88% 30.17 in 2.0 mi ENE 9.2 mph - 0.02 in Rain Light Rain
12:41 PM 57.2 °F 53.6 °F 88% 30.17 in 1.5 mi ENE 9.2 mph - 0.05 in Rain Rain
12:53 PM 57.0 °F 54.0 °F 89% 30.16 in 2.5 mi ENE 11.5 mph - 0.07 in Rain Rain
1:04 PM 57.2 °F 53.6 °F 88% 30.17 in 5.0 mi ENE 10.4 mph - 0.01 in Rain Light Rain
1:53 PM 57.0 °F 53.1 °F 87% 30.15 in 10.0 mi ENE 13.8 mph - 0.01 in   Overcast
2:53 PM 59.0 °F 52.0 °F 78% 30.14 in 10.0 mi ENE 10.4 mph 21.9 mph N/A   Mostly Cloudy
3:53 PM 61.0 °F 48.9 °F 64% 30.12 in 10.0 mi ENE 13.8 mph - N/A   Clear
4:53 PM 63.0 °F 50.0 °F 63% 30.13 in 10.0 mi NE 11.5 mph - N/A   Clear
5:53 PM 63.0 °F 48.9 °F 60% 30.14 in 10.0 mi ENE 9.2 mph - N/A   Clear
6:53 PM 61.0 °F 50.0 °F 67% 30.14 in 10.0 mi ENE 5.8 mph - N/A   Clear
7:53 PM 57.9 °F 48.9 °F 72% 30.13 in 10.0 mi ENE 9.2 mph - N/A   Clear
8:53 PM 55.0 °F 48.9 °F 80% 30.14 in 10.0 mi East 4.6 mph - N/A   Clear
9:53 PM 52.0 °F 48.9 °F 89% 30.16 in 10.0 mi Calm Calm - N/A   Clear
10:53 PM 53.1 °F 48.9 °F 86% 30.15 in 10.0 mi Calm Calm - N/A   Clear
11:53 PM 48.9 °F 46.9 °F 93% 30.15 in 10.0 mi Calm Calm - N/A   Clear